INMARSAT 5-F4 (42698 NORAD) Tracking and Keplerian Element Data

This shows tracking and keplerian element data for the satellite.

Feedback or suggestion? Click here.




ElementValue
Catalog42698
NameINMARSAT 5-F4
Epoch Orbit2586
Epoch Day159.43365806
Epoch Year2024
RAAN0.9988
Inclination0.0182
Eccentricity3.64E-05
Argument of Perigee322.1322
Mean Anonmoly145.7923
Mean Motion1.00271908
Decay Rate7.5E-07
L11 42698U 17025A 24159.43365806 .00000075 00000+0 00000+0 0 9990
L22 42698 0.0182 0.9988 0000364 322.1322 145.7923 1.00271908 25864



Live tracking and technical data element details for INMARSAT 5-F4 (NORAD 42698). INMARSAT 5-F4 can be tracked NOW for your location showing map with azimuth and elevation plus other details from your city location.







IsCatalogInMostPopularTable: catalog: 42698, numindb: 903
Update: records affected: 1



GetName: 42698 INMARSAT 5-F4

Hit Count: updated at: Tue, 17 Sep 2024 12:25:43 GMT